Le nostre stazioni meteo in Italia

Pubblicità
Il mio iltempo24.it
Capo Frasca, Italia (16539): Temperatura & dewpoint: 14.10.2017 09:00:00 - 20.10.2017 09:00:00 (CEST)Capo Frasca, Italia (16539): velocità del vento: 14.10.2017 09:00:00 - 20.10.2017 09:00:00 (CEST)Capo Frasca, Italia (16539): direzione del vento: 14.10.2017 09:00:00 - 20.10.2017 09:00:00 (CEST)Capo Frasca, Italia (16539): reduced air pressure: 14.10.2017 09:00:00 - 20.10.2017 09:00:00 (CEST)Capo Frasca, Italia (16539): visibility: 14.10.2017 09:00:00 - 20.10.2017 09:00:00 (CEST)
Data & Tempo tt [°C] td [°C] ff [km/h] ff [kn] dd ppp [hPa] vv [km]
20.10.2017 09:00:00 - - - - - - -
20.10.2017 08:00:00 - - - - - - -
20.10.2017 07:00:00 - - - - - - -
20.10.2017 06:00:00 - - - - - - -
20.10.2017 05:00:00 - - - - - - -
20.10.2017 04:00:00 - - - - - - -
20.10.2017 03:00:00 - - - - - - -
20.10.2017 02:00:00 - - - - - - -
20.10.2017 01:00:00 - - - - - - -
20.10.2017 00:00:00 - - - - - - -
19.10.2017 23:00:00 - - - - - - -
19.10.2017 22:00:00 - - - - - - -
19.10.2017 21:00:00 - - - - - - -
19.10.2017 20:00:00 - - - - - - -
19.10.2017 19:00:00 - - - - - - -
19.10.2017 18:00:00 - - - - - - -
19.10.2017 17:00:00 27,4 12,6 31 17 ESE 1011,5 25
19.10.2017 16:00:00 - - - - - - -
19.10.2017 15:00:00 - - - - - - -
19.10.2017 14:00:00 25,8 16,1 31 17 ESE 1013,1 25
19.10.2017 13:00:00 - - - - - - -
19.10.2017 12:00:00 - - - - - - -
19.10.2017 11:00:00 23,8 19,7 35 19 ESE 1014,0 25
19.10.2017 10:00:00 - - - - - - -
19.10.2017 09:00:00 - - - - - - -
19.10.2017 08:00:00 18,4 17,1 28 15 E 1014,2 20
19.10.2017 07:00:00 - - - - - - -
19.10.2017 06:00:00 - - - - - - -
19.10.2017 05:00:00 - - - - - - -
19.10.2017 04:00:00 - - - - - - -
19.10.2017 03:00:00 - - - - - - -
19.10.2017 02:00:00 - - - - - - -
19.10.2017 01:00:00 - - - - - - -
19.10.2017 00:00:00 - - - - - - -
18.10.2017 23:00:00 - - - - - - -
18.10.2017 22:00:00 - - - - - - -
18.10.2017 21:00:00 - - - - - - -
18.10.2017 20:00:00 19,0 16,8 5 3 NE 1016,6 20
18.10.2017 19:00:00 - - - - - - -
18.10.2017 18:00:00 - - - - - - -
18.10.2017 17:00:00 23,0 17,7 11 6 O 1016,9 30
18.10.2017 16:00:00 - - - - - - -
18.10.2017 15:00:00 - - - - - - -
18.10.2017 14:00:00 24,4 11,4 9 5 OSO 1018,4 25
18.10.2017 13:00:00 - - - - - - -
18.10.2017 12:00:00 - - - - - - -
18.10.2017 11:00:00 21,6 18,6 9 5 ESE 1019,6 20
18.10.2017 10:00:00 - - - - - - -
18.10.2017 09:00:00 - - - - - - -
18.10.2017 08:00:00 16,2 16,2 13 7 E 1019,8 15
18.10.2017 07:00:00 - - - - - - -
18.10.2017 06:00:00 - - - - - - -
18.10.2017 05:00:00 - - - - - - -
18.10.2017 04:00:00 - - - - - - -
18.10.2017 03:00:00 - - - - - - -
18.10.2017 02:00:00 - - - - - - -
18.10.2017 01:00:00 - - - - - - -
18.10.2017 00:00:00 - - - - - - -
17.10.2017 23:00:00 - - - - - - -
17.10.2017 22:00:00 - - - - - - -
17.10.2017 21:00:00 - - - - - - -
17.10.2017 20:00:00 21,0 18,8 5 3 O 1022,4 20
17.10.2017 19:00:00 - - - - - - -
17.10.2017 18:00:00 - - - - - - -
17.10.2017 17:00:00 23,8 19,9 15 8 O 1022,5 30
17.10.2017 16:00:00 - - - - - - -
17.10.2017 15:00:00 - - - - - - -
17.10.2017 14:00:00 23,8 15,6 11 6 O 1023,8 25
17.10.2017 13:00:00 - - - - - - -
17.10.2017 12:00:00 - - - - - - -
17.10.2017 11:00:00 21,8 17,8 21 11 E 1024,9 20
17.10.2017 10:00:00 - - - - - - -
17.10.2017 09:00:00 - - - - - - -
17.10.2017 08:00:00 16,0 16,0 13 7 E 1024,8 15
17.10.2017 07:00:00 - - - - - - -
17.10.2017 06:00:00 - - - - - - -
17.10.2017 05:00:00 - - - - - - -
17.10.2017 04:00:00 - - - - - - -
17.10.2017 03:00:00 - - - - - - -
17.10.2017 02:00:00 - - - - - - -
17.10.2017 01:00:00 - - - - - - -
17.10.2017 00:00:00 - - - - - - -
16.10.2017 23:00:00 - - - - - - -
16.10.2017 22:00:00 - - - - - - -
16.10.2017 21:00:00 - - - - - - -
16.10.2017 20:00:00 19,8 17,2 4 2 NNO 1027,0 20
16.10.2017 19:00:00 - - - - - - -
16.10.2017 18:00:00 - - - - - - -
16.10.2017 17:00:00 23,0 19,0 15 8 ONO 1025,9 20
16.10.2017 16:00:00 - - - - - - -
16.10.2017 15:00:00 - - - - - - -
16.10.2017 14:00:00 23,0 19,0 13 7 ONO 1026,8 20
16.10.2017 13:00:00 - - - - - - -
16.10.2017 12:00:00 - - - - - - -
16.10.2017 11:00:00 21,0 19,1 16 9 E 1027,4 20
16.10.2017 10:00:00 - - - - - - -
16.10.2017 09:00:00 - - - - - - -
16.10.2017 08:00:00 15,0 15,0 9 5 ESE 1026,6 4,0
16.10.2017 07:00:00 - - - - - - -
16.10.2017 06:00:00 - - - - - - -
16.10.2017 05:00:00 - - - - - - -
16.10.2017 04:00:00 - - - - - - -
16.10.2017 03:00:00 - - - - - - -
16.10.2017 02:00:00 - - - - - - -
16.10.2017 01:00:00 - - - - - - -
16.10.2017 00:00:00 - - - - - - -
15.10.2017 23:00:00 - - - - - - -
15.10.2017 22:00:00 - - - - - - -
15.10.2017 21:00:00 - - - - - - -
15.10.2017 20:00:00 20,8 19,8 8 4 ONO 1027,0 20
15.10.2017 19:00:00 - - - - - - -
15.10.2017 18:00:00 - - - - - - -
15.10.2017 17:00:00 - - - - - - -
15.10.2017 16:00:00 - - - - - - -
15.10.2017 15:00:00 - - - - - - -
15.10.2017 14:00:00 23,8 17,5 11 6 ONO 1027,5 25
15.10.2017 13:00:00 - - - - - - -
15.10.2017 12:00:00 - - - - - - -
15.10.2017 11:00:00 - - - - - - -
15.10.2017 10:00:00 - - - - - - -
15.10.2017 09:00:00 - - - - - - -
15.10.2017 08:00:00 15,0 15,0 5 3 ENE 1027,8 15
15.10.2017 07:00:00 - - - - - - -
15.10.2017 06:00:00 - - - - - - -
15.10.2017 05:00:00 - - - - - - -
15.10.2017 04:00:00 - - - - - - -
15.10.2017 03:00:00 - - - - - - -
15.10.2017 02:00:00 - - - - - - -
15.10.2017 01:00:00 - - - - - - -
15.10.2017 00:00:00 - - - - - - -
14.10.2017 23:00:00 - - - - - - -
14.10.2017 22:00:00 - - - - - - -
14.10.2017 21:00:00 - - - - - - -
14.10.2017 20:00:00 21,0 18,8 9 5 O 1026,3 20
14.10.2017 19:00:00 - - - - - - -
14.10.2017 18:00:00 - - - - - - -
14.10.2017 17:00:00 - - - - - - -
14.10.2017 16:00:00 - - - - - - -
14.10.2017 15:00:00 - - - - - - -
14.10.2017 14:00:00 22,4 18,6 11 6 O 1026,5 20
14.10.2017 13:00:00 - - - - - - -
14.10.2017 12:00:00 - - - - - - -
14.10.2017 11:00:00 - - - - - - -
14.10.2017 10:00:00 - - - - - - -
14.10.2017 09:00:00 - - - - - - -

tt = Temperatura
td = dewpoint
ff = velocità del vento
dd = direzione del vento
ppp = reduced air pressure
vv = visibility

Stazioni seguenti

WeatherPro
AMSI
MeteoEarth